This is the latest recevied weather packets stored in our database for station/object AA8FM-13. If no packets are shown the sender has not sent any weather packets the latest 10 day(s).
| Time | Temp. | Humidity | Pressure | Rain* | Wind** | Luminosity | Snow |
|---|---|---|---|---|---|---|---|
| 1777560736 | 10.56° C | 74% | 1010 hPa | 0 mm | - | 53 W/m² | - |
| 1777560432 | 10.56° C | 71% | 1010.2 hPa | 0 mm | - | 75 W/m² | - |
| 1777560131 | 11.11° C | 71% | 1009.7 hPa | 0 mm | - | 138 W/m² | - |
| 1777559827 | 11.67° C | 72% | 1009.7 hPa | 0 mm | - | 458 W/m² | - |
| 1777559523 | 11.11° C | 72% | 1009.6 hPa | 0 mm | - | 168 W/m² | - |
| 1777559220 | 11.67° C | 70% | 1009.7 hPa | 0 mm | - | 126 W/m² | - |
| 1777558915 | 11.11° C | 71% | 1009.6 hPa | 0 mm | - | 550 W/m² | - |
| 1777558611 | 11.67° C | 69% | 1009.5 hPa | 0 mm | - | 507 W/m² | - |
| 1777558307 | 11.11° C | 75% | 1009.5 hPa | 0 mm | - | 483 W/m² | - |
| 1777558004 | 10.56° C | 76% | 1009.5 hPa | 0 mm | - | 482 W/m² | - |
| 1777557700 | 11.67° C | 76% | 1009.4 hPa | 0 mm | - | 518 W/m² | - |
| 1777557397 | 11.67° C | 74% | 1009.2 hPa | 0 mm | - | 483 W/m² | - |
| 1777557093 | 11.11° C | 79% | 1009.2 hPa | 0 mm | - | 431 W/m² | - |
| 1777556788 | 10° C | 79% | 1009.3 hPa | 0 mm | - | 394 W/m² | - |
| 1777556486 | 10° C | 83% | 1009.4 hPa | 0 mm | - | 83 W/m² | - |
| 1777556185 | 10° C | 83% | 1009.3 hPa | 0 mm | - | 123 W/m² | - |
| 1777555881 | 10.56° C | 82% | 1009.2 hPa | 0 mm | - | 396 W/m² | - |
| 1777555577 | 9.44° C | 83% | 1009.5 hPa | 0 mm | - | 343 W/m² | - |
| 1777555274 | 10° C | 83% | 1009.3 hPa | 0 mm | - | 57 W/m² | - |
| 1777554970 | 10° C | 84% | 1009 hPa | 0 mm | - | 94 W/m² | - |
| 1777554667 | 10° C | 83% | 1008.8 hPa | 0 mm | - | 131 W/m² | - |
| 1777554364 | 10° C | 84% | 1009.2 hPa | 0 mm | - | 261 W/m² | - |
| 1777554061 | 10° C | 87% | 1008.8 hPa | 0 mm | - | 249 W/m² | - |
| 1777553757 | 10° C | 89% | 1009 hPa | 0 mm | - | 135 W/m² | - |
| 1777553454 | 10° C | 90% | 1008.9 hPa | 0 mm | - | 85 W/m² | - |
* Rain latest hour (hover to see other rain measurements)
** Current wind speed in m/s (hover to see current wind gust speed)